Location: Orange
(33.2833°S, 149.1000°E)
Time: 19:38:31
(UTC+11:00)

Hubble Space Telescope - Pass Details

Date: 04 October 2022
Orbit: 530 x 534 km, 28.5° (Epoch: 04 December)

Event Time Altitude Azimuth Distance (km) Brightness Sun altitude
Exits shadow 04:40:53 33° 38° (NE) 906 2.0 -24.4°
Drops below altitude 10° 04:43:51 10° 76° (ENE) 1,789 4.1 -23.8°
Sets 04:46:13 0° 84° (E) 2,681 5.3 -23.4°
